Location: Azul
(36.7830°S, 59.8500°W)
Time: 02:57:15
(UTC-03:00)

UWE-3 - Pass Details

Date: 28 October 2021
Orbit: 584 x 681 km, 97.7° (Epoch: 04 December)

Event Time Altitude Azimuth Distance (km) Brightness Sun altitude
Exits shadow 03:48:40 15° 34° (NE) 1,682 ? -23.6°
Maximum altitude 03:52:05 51° 106° (ESE) 806 ? -23.1°
Drops below altitude 10° 03:56:29 10° 181° (S) 2,079 ? -22.4°
Sets 03:58:48 0° 186° (S) 3,014 ? -22.1°
